Regional Weather Roundup
Issued by NWS Cleveland, OH

Home | Current Version | Previous Version | Graphics & Text | Print | Product List | Glossary On
Versions: 1 2 3 4 5 6 7 8 9 10 11 12 13 14 15 16 17 18 19 20 21 22 23 24 25 26 27 28 29 30 31 32 33 34 35 36 37 38 39 40 41 42 43 44 45 46 47 48 49 50
000
ASUS41 KCLE 211500
RWRCLE
OHIO REGIONAL WEATHER ROUNDUP
NATIONAL WEATHER SERVICE WILMINGTON, OH
1000 AM EST SUN DEC 21 2014

NOTE: "FAIR" INDICATES FEW OR NO CLOUDS BELOW 12,000 FEET WITH NO
SIGNIFICANT WEATHER AND/OR OBSTRUCTIONS TO VISIBILITY.

OHZ001>008-015>018-024>027-034-035-043-044-211600-
   NORTHWEST OHIO

CITY           SKY/WX    TMP DP  RH WIND       PRES   REMARKS
DEFIANCE       CLOUDY    31  28  89 S6        30.31R FOG     WCI  25
FINDLAY        PTSUNNY   29  26  89 S3        30.31R FOG
TOLEDO EXPRESS CLOUDY    28  26  92 CALM      30.31R FOG
TOLEDO METCALF MOSUNNY   29  25  85 S5        30.33R FOG     WCI  24
LIMA           CLOUDY    31  26  82 S5        30.30R HAZE    WCI  26
$$

OHZ009>014-019>023-028>033-038-089-211600-
   NORTHEAST OHIO

CITY           SKY/WX    TMP DP  RH WIND       PRES   REMARKS
CLE-HOPKINS    CLOUDY    30  22  72 S6        30.35R WCI  24
CLE-LAKEFRONT  CLOUDY    32  22  66 S5        30.33R WCI  27
CUY CO. ARPT   CLOUDY    32  23  69 SW7       30.33R WCI  26
LORAIN-ELYRIA  CLOUDY    30  23  75 S3        30.32S
ASHTABULA      CLOUDY    30  25  81 CALM      30.32S
AKRON-CANTON   CLOUDY    30  22  72 CALM      30.30S
WOOSTER        NOT AVBL
MANSFIELD      SUNNY     29  21  72 S5        30.29S WCI  24
YOUNGSTOWN     CLOUDY    29  22  75 SW3       30.30S
$$

OHZ042-051>053-060>062-070>072-077>081-211600-
  SOUTHWEST OHIO

CITY           SKY/WX    TMP DP  RH WIND       PRES   REMARKS
CINC-COVINGTON CLOUDY    30  22  72 SE6       30.31R WCI  24
CINC-LUNKEN    CLOUDY    30  25  81 E6        30.35S WCI  24
HAMILTON       SUNNY     27  25  92 CALM      30.34R FOG
DAYTON         NOT AVBL
WRIGHT-PAT AFB NOT AVBL
DAYTON GENERAL SUNNY     30  25  81 E6        30.30R HAZE    WCI  24
WILMINGTON     MOSUNNY   29  23  78 SE8       30.31R WCI  21
$$

OHZ036-037-039>041-045>050-054>059-063>069-073>076-082>088-211600-
  CENTRAL AND SOUTHEAST OHIO

CITY           SKY/WX    TMP DP  RH WIND       PRES   REMARKS
COLUMBUS       MOSUNNY   31  21  66 SE5       30.33R WCI  26
OSU AIRPORT    SUNNY     31  23  72 SE6       30.32R WCI  25
BOLTON FIELD   MOSUNNY   30  25  80 CALM      30.33R
RICKENBACK AFB NOT AVBL
NEWARK         CLOUDY    31  22  69 CALM      30.33R
MARION         MOSUNNY   29  25  85 S6        30.32R FOG     WCI  23
LANCASTER      CLOUDY    48  23  37 SE5       30.34R
ZANESVILLE     CLOUDY    30  24  78 S3        30.33R HAZE
NEW PHILLY     CLOUDY    31  23  72 CALM      30.33S
$$



USA.gov is the U.S. government's official web portal to all federal, state and local government web resources and services.